RESURS P2 1 40360U 14087A 21111.44969347 .00001852 00000-0 58285-4 0 9993 2 40360 97.2270 200.1189 0010301 153.0392 335.8034 15.34155248353523 RESURS P2 DEB 1 41541U 14087C 21108.19659851 .00013923 00000-0 16118-3 0 9999 2 41541 97.4345 271.1201 0001362 346.3962 13.7259 15.61962213353080 RESURS P2 DEB 1 41542U 14087D 21107.72192476 .00014015 00000-0 15749-3 0 9995 2 41542 97.4308 270.9483 0002430 334.2305 25.8832 15.62730168351917